Location: Unspecified
(52.4292°N, 19.3359°E)
Time: 15:42:21
(UTC+02:00)

Transit 2A Rocket - Pass Details

Date: 23 May 2024
Orbit: 583 x 910 km, 66.7° (Epoch: 14 June)

Event Time Altitude Azimuth Distance (km) Brightness Sun altitude
Rises 03:06:40 0° 159° (SSE) 2,986 7.7 -10.2°
Reaches altitude 10° 03:09:58 10° 133° (SE) 2,148 7.3 -9.9°
Maximum altitude 03:12:23 14° 103° (ESE) 1,954 7.4 -9.7°
Drops below altitude 10° 03:14:55 10° 74° (ENE) 2,264 8.3 -9.5°
Sets 03:18:33 0° 50° (NE) 3,276 10.2 -9.2°
